Downstream station:
SHEF ID: ENWK1 CROOKED C NR ENGLEWOOD, KS
STATION TYPE:
Regulating: Stage = 6.50, Flow = 243
PRECIP STAGE RIV-FLOW BAT-LOAD
in ft cfs volt
Ccp-Rev Ccp-Rev Ccp-Rev Ccp-Rev
(US/Central)
01/04 00:00 0.00 2.45 4 12.89
01/04 01:00 0.00 2.45 4 12.89
01/04 02:00 0.00 2.44 4 12.83
01/04 03:00 0.00 2.44 4 12.83
01/04 04:00 0.00 2.44 4 12.83
01/04 05:00 0.00 2.45 4 12.83
01/04 06:00 0.00 2.47 4 12.77
01/04 07:00 0.00 2.47 4 12.71
01/04 08:00 0.00 2.45 4 12.65
01/04 09:00 0.00 2.44 4 13.00
01/04 10:00 0.00 2.43 3 14.24
01/04 11:00 0.00 2.44 4 14.24
01/04 12:00 0.00 2.44 4 14.47
01/04 13:00 0.00 2.43 3 14.24
01/04 14:00 0.00 2.45 4 14.18
01/04 15:00 0.00 2.47 4 14.18
01/04 16:00 0.00 2.47 4 13.94
01/04 17:00 0.00 2.47 4 13.88
01/04 18:00 0.00 2.46 4 13.36
01/04 19:00 0.00 2.45 4 13.07
01/04 20:00 0.00 2.45 4 13.00
01/04 21:00 0.00 2.44 4 12.95
01/04 22:00 0.00 2.44 4 12.95
01/04 23:00 ---- ---- ---- ----